Location: Newark
(51.0500°N, 12.4500°E)
Time: 08:44:34
(UTC+00:00)

Tiros 1 - Pass Details

Date: 20 February 2020
Orbit: 630 x 664 km, 48.4° (Epoch: 07 April)

Event Time Altitude Azimuth Distance (km) Brightness Sun altitude
Rises 01:49:58 0° 209° (SSW) 2,917 - -40.3°
Reaches altitude 10° 01:52:45 10° 193° (SSW) 2,008 - -39.9°
Maximum altitude 01:56:11 21° 145° (SE) 1,425 - -39.5°
Drops below altitude 10° 01:59:37 10° 97° (E) 2,009 - -39.1°
Exits shadow 02:00:14 - 92° (E) 2,199 10.4 -39.0°
Sets 02:02:23 0° 81° (E) 2,919 11.2 -38.7°
